This is the latest recevied weather packets stored in our database for station/object AD0YN. If no packets are shown the sender has not sent any weather packets the latest 10 day(s).
| Time | Temp. | Humidity | Pressure | Rain* | Wind** | Luminosity | Snow |
|---|---|---|---|---|---|---|---|
| 1778114119 | 14.44° C | 33% | 1016.5 hPa | 0 mm | - | 35 W/m² | - |
| 1778113814 | 15° C | 33% | 1016.4 hPa | 0 mm | - | 40 W/m² | - |
| 1778113511 | 15° C | 32% | 1016.4 hPa | 0 mm | - | 47 W/m² | - |
| 1778113207 | 15° C | 31% | 1016.3 hPa | 0 mm | - | 56 W/m² | - |
| 1778112903 | 15° C | 31% | 1016.4 hPa | 0 mm | - | 66 W/m² | - |
| 1778112601 | 15° C | 30% | 1016.2 hPa | 0 mm | - | 79 W/m² | - |
| 1778112297 | 15° C | 30% | 1016.3 hPa | 0 mm | - | 90 W/m² | - |
| 1778111992 | 15.56° C | 30% | 1016.5 hPa | 0 mm | - | 104 W/m² | - |
| 1778111690 | 15.56° C | 32% | 1016.2 hPa | 0 mm | - | 117 W/m² | - |
| 1778111386 | 15.56° C | 30% | 1016.2 hPa | 0 mm | - | 130 W/m² | - |
| 1778111083 | 15.56° C | 31% | 1016.3 hPa | 0 mm | - | 146 W/m² | - |
| 1778110781 | 15° C | 33% | 1016.1 hPa | 0 mm | - | 163 W/m² | - |
| 1778110477 | 15.56° C | 32% | 1016.5 hPa | 0 mm | - | 179 W/m² | - |
| 1778110174 | 15.56° C | 31% | 1016 hPa | 0 mm | - | 192 W/m² | - |
| 1778109870 | 15.56° C | 31% | 1016.2 hPa | 0 mm | - | 205 W/m² | - |
| 1778109566 | 15.56° C | 33% | 1016.2 hPa | 0 mm | - | 221 W/m² | - |
| 1778109263 | 15.56° C | 31% | 1016.3 hPa | 0 mm | - | 237 W/m² | - |
| 1778108961 | 15.56° C | 31% | 1016.3 hPa | 0 mm | - | 252 W/m² | - |
| 1778108657 | 15.56° C | 32% | 1016.4 hPa | 0 mm | - | 275 W/m² | - |
| 1778108354 | 15.56° C | 30% | 1016.5 hPa | 0 mm | - | 293 W/m² | - |
| 1778108051 | 15.56° C | 30% | 1016.3 hPa | 0 mm | - | 312 W/m² | - |
| 1778107748 | 15.56° C | 29% | 1016.5 hPa | 0 mm | - | 332 W/m² | - |
| 1778107445 | 16.11° C | 30% | 1016.6 hPa | 0 mm | - | 351 W/m² | - |
| 1778107141 | 16.11° C | 33% | 1016.7 hPa | 0 mm | - | 358 W/m² | - |
| 1778106836 | 16.11° C | 30% | 1016.5 hPa | 0 mm | - | 396 W/m² | - |
* Rain latest hour (hover to see other rain measurements)
** Current wind speed in m/s (hover to see current wind gust speed)